STARLINK-1422, 45696

Orbit data source: Space-Track

STARLINK-1422, 45696 is a payload satellite owned by SpaceX/Seattle (US) in LEO that was launched on Thu, 04 Jun 2020 UTC via an FALCON 9 launch vehicle from the Air Force Eastern Test Range (AFETR). Payload-class satellites include a variety of spacecraft equipped with specific instruments for various scientific and technological missions. These include communications satellites like Starlink; space stations such as the ISS; scientific satellites like the Hubble; Earth observation satellites from companies like Planet Labs, Umbra, and HawkEye 360; GPS; miniature CubeSats for education and research; and military/defense satellites.

Loading next visibility...
Identifier
45696, 2020-035AR
Orbit
LEO
Country
Flag of USUS
Related business
Manufacturer
SpaceX/Seattle
Mission
Partially operational Commercial Communications
Bus & Motor
STARLINK, Unknown motor
Mass
260 kg wet, ~248 kg dry
Launch date (UTC)
2020-06-04 (6 years ago)
Launch vehicle
FALCON 9
Launch site
Air Force Eastern Test Range (AFETR)
Object type
Payload
Rocket body
Debris
Shape & HBR
Box + 1 Pan, 10.1 m
Radar Cross Section
13.562 m², Large (>1 m²)

Expand to show TLE details & history
Last TLE update: 9 hours ago

TLE from 9 hours ago
0 STARLINK-1422
1 45696U 20035AR  26167.66756025  .00040830  00000-0  11579-2 0  9999
2 45696  53.1577 308.4739 0001658 248.9760 111.1066 15.35859743334141
Epoch: 2026-06-16T16:01Z
TLE epoch observation values (Epoch: 2026-06-16T16:01:17.205Z)
Latitude
-0.00002°
Longitude
163.21589°
Altitude
459.678 km
Speed
7.638 km/s
True Right ascension
20h 33m 53s
True Declination
0° 00' 00"
Sunlit
Object was in full shadow at epoch
Visualization orbit readout
Latitude
Unknown
Longitude
Unknown
Altitude
Unknown
Speed
Unknown
Apparent Right ascension
Unknown
Apparent Declination
Unknown
Sunlit
N/A
Visualization observer readout
Local Sidereal Time
11:15:28
Azimuth
Unknown
Elevation
Unknown
Doppler factor
Unknown
Orbital elements
Apogee altitude
459.759 km
Perigee altitude
457.492 km
Semi-major axis
6,836.762 km
Eccentricity
0.00017
Inclination
53.1577°
RAAN
308.4739°
Arg. of periapsis
248.976°
True anomaly
111.12432°
Mean anomaly
111.1066°
Eccentric anomaly
111.11546°
Mean motion
3.83944 °/min
Orbital period
93.76 mins
BSTAR
0.0011579
Loading maneuver chart data...
Computing Atmospheric mass density...

Documentation

Showing up to 5 results
|